Weather in Razdolinsk

Russia / Krasnoyarsk Krai     58°25′03″N   94°37′14″E
temp.,
°C
wind,
m/s
gust,
m/s
humid.,
%
clouds,
%
prec.,
mm/h
press.,
hPa
HPBL,
m
7 march, sun
sun701:00−5sw61295100 4.1 10051237
04:00−6sw61295100 1.0 10041036
07:00−6sw61294100 2.1 10041040
10:00−5sw71493100 0.9 10041380
13:00−5wsw7128699 1.7 10051326
16:00−6wsw71288100 0.4 10071327
19:00−8wsw51194100 0.9 10111098
22:00−10w51292100 0.3 1013929
8 march, mon
mon801:00−11w41293100 0.4 1016798
04:00−12wsw41194100 0.2 1018672
07:00−13wsw3996100 0.3 1021367
10:00−12sw2596100 0.1 1022276
13:00−9ssw3593100 0.1 1021525
16:00−8sse4793100 0.1 1017581
19:00−9se51295100 0.1 1014574
22:00−8sse61396100 0.9 1008602
9 march, tue
tue901:00−5s51695100 2.9 1003926
04:00−3wsw81595100 2.0 10021419
07:00−6w81586100 2.7 10061343
10:00−10wsw8159091 0.1 10111081
13:00−9wsw8148895 0.3 10141329
16:00−9w71288100 0.3 10171402
19:00−10wsw51194100 0.7 10201051
22:00−12wsw51294100 0.3 1021720
10 march, wed
wed1001:00−14wsw31097100 0.3 1022333
04:00−17ssw22100100 0.1 102127
07:00−17s37100100 0.1 1018180
10:00−13ssw499599 0.0 1015367
13:00−8ssw599097 0.1 1013655
16:00−5sw5991100 0.1 1012895
19:00−6sw2996100 0.3 1012434
22:00−8s2299100 0.1 101249
11 march, thu
thu1101:00−6sse1498100 0.2 1010136
04:00−6se2698100 0.2 1006239
07:00−8se31197100 0.3 1001333
10:00−3s71696100 0.8 997796
13:000sw91998100 2.9 9961721
16:00−3wsw101992100 1.1 10001463
19:00−5wsw81692100 1.6 10061320
22:00−6sw61494100 0.5 10091354